This is the latest recevied weather packets stored in our database for station/object KG5CK-1. If no packets are shown the sender has not sent any weather packets the latest 1 day(s).
| Time | Temp. | Humidity | Pressure | Rain* | Wind** | Luminosity | Snow |
|---|---|---|---|---|---|---|---|
| 1778070963 | 11.67° C | 87% | 1009.2 hPa | 0 mm | 0.89 m/s, 29° | - | - |
| 1778070843 | 12.22° C | 87% | 1009 hPa | 0 mm | 1.34 m/s, 33° | - | - |
| 1778070543 | 12.22° C | 87% | 1008.9 hPa | 0 mm | 1.34 m/s, 63° | - | - |
| 1778070483 | 12.22° C | 87% | 1008.9 hPa | 0 mm | 1.34 m/s, 63° | - | - |
| 1778070423 | 12.22° C | 87% | 1008.9 hPa | 0 mm | 1.34 m/s, 63° | - | - |
| 1778069944 | 11.67° C | 86% | 1008.6 hPa | 0 mm | 0.89 m/s, 50° | - | - |
| 1778069703 | 11.67° C | 86% | 1008.6 hPa | 0 mm | 0.89 m/s, 50° | - | - |
| 1778069643 | 12.22° C | 86% | 1008.8 hPa | 0 mm | 2.24 m/s, 7° | - | - |
| 1778069583 | 12.22° C | 86% | 1008.8 hPa | 0 mm | 2.24 m/s, 7° | - | - |
| 1778069463 | 12.22° C | 86% | 1008.8 hPa | 0 mm | 2.24 m/s, 7° | - | - |
| 1778069403 | 12.22° C | 86% | 1008.9 hPa | 0 mm | 1.34 m/s, 28° | - | - |
| 1778069283 | 12.22° C | 86% | 1008.9 hPa | 0 mm | 1.34 m/s, 28° | - | - |
| 1778069163 | 12.22° C | 86% | 1008.9 hPa | 0 mm | 1.34 m/s, 28° | - | - |
| 1778068863 | 12.22° C | 85% | 1009 hPa | 0 mm | 2.24 m/s, 331° | - | - |
| 1778068743 | 12.22° C | 85% | 1008.6 hPa | 0 mm | 0.89 m/s, 25° | - | - |
| 1778068503 | 12.22° C | 84% | 1008.5 hPa | 0 mm | 2.68 m/s, 13° | - | - |
| 1778068443 | 12.22° C | 84% | 1008.5 hPa | 0 mm | 2.68 m/s, 13° | - | - |
| 1778068383 | 12.22° C | 84% | 1008.5 hPa | 0 mm | 2.68 m/s, 13° | - | - |
| 1778068323 | 12.22° C | 84% | 1008.5 hPa | 0 mm | 2.68 m/s, 13° | - | - |
| 1778068263 | 12.22° C | 84% | 1008.5 hPa | 0 mm | 2.68 m/s, 13° | - | - |
| 1778068083 | 12.22° C | 84% | 1008.4 hPa | 0 mm | 0.89 m/s, 40° | - | - |
| 1778067963 | 12.22° C | 84% | 1008.4 hPa | 0 mm | 0.89 m/s, 40° | - | - |
| 1778067843 | 12.22° C | 84% | 1008.3 hPa | 0 mm | 1.34 m/s, 17° | - | - |
| 1778067783 | 12.22° C | 84% | 1008.3 hPa | 0 mm | 1.34 m/s, 17° | - | - |
| 1778067723 | 12.22° C | 84% | 1008.3 hPa | 0 mm | 1.34 m/s, 17° | - | - |
* Rain latest hour (hover to see other rain measurements)
** Current wind speed in m/s (hover to see current wind gust speed)